Wahpeton, MN

2:37 PM CDT on October 18, 2019 (GMT -0500)
Stern

Weather History for KBWP - August, 2019

Change the Weather History Date:

Sunday, August 25, 2019

  Actual Average (WUND) Record (WUND)
Temperature  
Mean Temperature 62 °F -  
Max Temperature 66 °F - - (-1)
Min Temperature 59 °F - - (-1)
Degree Days  
Heating Degree Days 2    
Growing Degree Days 12 (Base 50)    
Moisture  
Dew Point 57 °F    
Average Humidity 80    
Maximum Humidity 88    
Minimum Humidity 72    
Precipitation  
Precipitation 0.00 in - - ()
Sea Level Pressure  
Sea Level Pressure 29.87 in    
Wind  
Wind Speed 13 mph ()    
Max Wind Speed 20 mph    
Max Gust Speed 28 mph    
Visibility 10.0 miles    
Events      
Averages and records for this station are not official NWS values.
T = Trace of Precipitation, MM = Missing Value Source: Averaged Metar Reports

Daily Weather History Graph

Daily Weather History Graph

Search for Another Location

Airport or City:

Astronomy

Aug. 25, 2019 Rise Set
Actual Time 6:37 AM CDT 8:18 PM CDT
Civil Twilight 6:06 AM CDT 8:50 PM CDT
Nautical Twilight 5:27 AM CDT 9:28 PM CDT
Astronomical Twilight 4:45 AM CDT 10:10 PM CDT
Moon 1:03 AM CDT (8/25) 4:52 PM CDT (8/25)
Length of Visible Light 14h 43m
Length of Day
13h 40m
Waning Crescent, 29% of the Moon is Illuminated
Aug 25
Waning Crescent
Aug 30
New
Sep 5
First Quarter
Sep 13
Full
Sep 21
Last Quarter

Hourly Weather History & Observations

Time (CDT) Temp. Dew Point Humidity Pressure Visibility Wind Dir Wind Speed Gust Speed Precip Events Conditions
12:15 AM 60.8 °F 53.6 °F 77% 29.99 in 10.0 mi SSE 13.8 mph - N/A   Unknown
12:35 AM 60.8 °F 53.6 °F 77% 29.99 in 10.0 mi SSE 12.7 mph - N/A   Unknown
12:55 AM 60.8 °F 53.6 °F 77% 29.99 in 10.0 mi SE 12.7 mph - N/A   Unknown
1:15 AM 60.8 °F 53.6 °F 77% 29.99 in 10.0 mi SSE 11.5 mph - N/A   Unknown
1:35 AM 60.8 °F 53.6 °F 77% 29.98 in 10.0 mi SSE 9.2 mph - N/A   Unknown
1:55 AM 60.8 °F 53.6 °F 77% 29.98 in 10.0 mi SSE 11.5 mph - N/A   Unknown
2:15 AM 59.0 °F 53.6 °F 82% 29.97 in 10.0 mi SSE 11.5 mph - N/A   Unknown
2:35 AM 59.0 °F 53.6 °F 82% 29.96 in 10.0 mi SE 9.2 mph - N/A   Unknown
2:55 AM 59.0 °F 53.6 °F 82% 29.95 in 10.0 mi SE 10.4 mph - N/A   Unknown
3:15 AM 59.0 °F 53.6 °F 82% 29.95 in 10.0 mi SSE 10.4 mph - N/A   Unknown
3:35 AM 59.0 °F 53.6 °F 82% 29.94 in 10.0 mi SE 11.5 mph - N/A   Unknown
3:55 AM 59.0 °F 53.6 °F 82% 29.92 in 10.0 mi SE 15.0 mph - N/A   Unknown
4:15 AM 60.8 °F 53.6 °F 77% 29.91 in 10.0 mi SE 16.1 mph 21.9 mph N/A   Unknown
4:35 AM 60.8 °F 53.6 °F 77% 29.91 in 10.0 mi SSE 13.8 mph 20.7 mph N/A   Unknown
4:55 AM 60.8 °F 53.6 °F 77% 29.91 in 10.0 mi SSE 15.0 mph 20.7 mph N/A   Unknown
5:15 AM 60.8 °F 53.6 °F 77% 29.91 in 10.0 mi SSE 12.7 mph - N/A   Unknown
5:35 AM 60.8 °F 53.6 °F 77% 29.91 in 10.0 mi SSE 13.8 mph - N/A   Unknown
5:55 AM 60.8 °F 53.6 °F 77% 29.90 in 10.0 mi SSE 12.7 mph - N/A   Unknown
6:15 AM 60.8 °F 53.6 °F 77% 29.90 in 10.0 mi SSE 11.5 mph - N/A   Unknown
6:35 AM 59.0 °F 53.6 °F 82% 29.90 in 10.0 mi SSE 11.5 mph - N/A   Unknown
6:55 AM 60.8 °F 53.6 °F 77% 29.90 in 10.0 mi SSE 10.4 mph - N/A   Unknown
7:15 AM 60.8 °F 53.6 °F 77% 29.90 in 10.0 mi SSE 13.8 mph - N/A   Unknown
7:35 AM 60.8 °F 53.6 °F 77% 29.89 in 10.0 mi SSE 12.7 mph - N/A   Unknown
7:55 AM 60.8 °F 53.6 °F 77% 29.89 in 10.0 mi SSE 12.7 mph 18.4 mph N/A   Unknown
8:15 AM 62.6 °F 53.6 °F 72% 29.90 in 10.0 mi SSE 13.8 mph 18.4 mph N/A   Unknown
8:35 AM 62.6 °F 55.4 °F 77% 29.89 in 10.0 mi SSE 13.8 mph 21.9 mph N/A   Unknown
8:55 AM 62.6 °F 55.4 °F 77% 29.89 in 10.0 mi SSE 12.7 mph 16.1 mph N/A   Unknown
9:15 AM 62.6 °F 55.4 °F 77% 29.89 in 10.0 mi SSE 15.0 mph 21.9 mph N/A   Unknown
9:35 AM 64.4 °F 55.4 °F 73% 29.89 in 10.0 mi SSE 16.1 mph 21.9 mph N/A   Unknown
9:55 AM 64.4 °F 55.4 °F 73% 29.89 in 10.0 mi SSE 15.0 mph - N/A   Overcast
10:35 AM 64.4 °F 55.4 °F 73% 29.89 in 10.0 mi SSE 16.1 mph 21.9 mph N/A   Unknown
10:55 AM 64.4 °F 57.2 °F 77% 29.88 in 10.0 mi SSE 17.3 mph 23.0 mph N/A   Overcast
11:15 AM 64.4 °F 57.2 °F 77% 29.88 in 7.0 mi SSE 18.4 mph 24.2 mph N/A   Unknown
11:55 AM 62.6 °F 59.0 °F 88% 29.88 in 10.0 mi SSE 17.3 mph 20.7 mph N/A   Unknown
12:15 PM 62.6 °F 59.0 °F 88% 29.87 in 10.0 mi SSE 13.8 mph - N/A   Overcast
12:35 PM 64.4 °F 59.0 °F 83% 29.87 in 10.0 mi SE 18.4 mph 23.0 mph N/A   Overcast
12:55 PM 64.4 °F 59.0 °F 83% 29.87 in 10.0 mi SSE 13.8 mph 18.4 mph N/A   Overcast
1:15 PM 64.4 °F 59.0 °F 83% 29.87 in 10.0 mi SSE 15.0 mph 23.0 mph N/A   Overcast
1:35 PM 64.4 °F 59.0 °F 83% 29.86 in 10.0 mi SE 13.8 mph 19.6 mph N/A   Overcast
1:55 PM 64.4 °F 59.0 °F 83% 29.86 in 10.0 mi SSE 18.4 mph 23.0 mph N/A   Overcast
2:15 PM 64.4 °F 59.0 °F 83% 29.87 in 10.0 mi SSE 16.1 mph 24.2 mph N/A   Overcast
2:35 PM 64.4 °F 59.0 °F 83% 29.86 in 10.0 mi SSE 16.1 mph 23.0 mph N/A   Overcast
2:55 PM 64.4 °F 59.0 °F 83% 29.85 in 10.0 mi SE 16.1 mph - N/A   Overcast
3:15 PM 64.4 °F 59.0 °F 83% 29.85 in 10.0 mi SSE 17.3 mph 27.6 mph N/A   Overcast
3:55 PM 64.4 °F 59.0 °F 83% 29.84 in 10.0 mi SSE 18.4 mph 24.2 mph N/A   Overcast
4:15 PM 64.4 °F 59.0 °F 83% 29.83 in 10.0 mi SE 17.3 mph 25.3 mph N/A   Overcast
4:35 PM 64.4 °F 59.0 °F 83% 29.82 in 10.0 mi SSE 19.6 mph 25.3 mph N/A   Overcast
4:55 PM 66.2 °F 59.0 °F 78% 29.82 in 10.0 mi SSE 16.1 mph 25.3 mph N/A   Overcast
5:15 PM 66.2 °F 59.0 °F 78% 29.81 in 10.0 mi SSE 16.1 mph 24.2 mph N/A   Overcast
5:35 PM 66.2 °F 59.0 °F 78% 29.81 in 10.0 mi SSE 18.4 mph 25.3 mph N/A   Unknown
5:55 PM 66.2 °F 59.0 °F 78% 29.81 in 10.0 mi SSE 16.1 mph 25.3 mph N/A   Unknown
6:15 PM 66.2 °F 59.0 °F 78% 29.81 in 10.0 mi SSE 19.6 mph 23.0 mph N/A   Unknown
6:35 PM 64.4 °F 59.0 °F 83% 29.81 in 10.0 mi SSE 18.4 mph 24.2 mph N/A   Unknown
6:55 PM 64.4 °F 59.0 °F 83% 29.80 in 10.0 mi SE 12.7 mph 21.9 mph N/A   Unknown
7:15 PM 64.4 °F 59.0 °F 83% 29.79 in 10.0 mi SE 16.1 mph - N/A   Unknown
7:35 PM 64.4 °F 59.0 °F 83% 29.80 in 10.0 mi SSE 17.3 mph 20.7 mph N/A   Unknown
7:55 PM 64.4 °F 59.0 °F 83% 29.79 in 10.0 mi SSE 16.1 mph 23.0 mph N/A   Unknown
8:15 PM 64.4 °F 59.0 °F 83% 29.78 in 10.0 mi SSE 13.8 mph 23.0 mph N/A   Unknown
8:35 PM 64.4 °F 59.0 °F 83% 29.78 in 10.0 mi SSE 16.1 mph - N/A   Unknown
8:55 PM 64.4 °F 59.0 °F 83% 29.79 in 10.0 mi SSE 15.0 mph 19.6 mph N/A   Unknown
9:15 PM 64.4 °F 59.0 °F 83% 29.79 in 10.0 mi SSE 16.1 mph 23.0 mph N/A   Unknown
9:35 PM 64.4 °F 59.0 °F 83% 29.81 in 10.0 mi SSE 11.5 mph 16.1 mph N/A   Unknown
9:55 PM 64.4 °F 59.0 °F 83% 29.80 in 10.0 mi SSE 12.7 mph - N/A   Unknown
10:15 PM 64.4 °F 59.0 °F 83% 29.79 in 10.0 mi SSE 13.8 mph 19.6 mph N/A   Unknown
10:35 PM 64.4 °F 59.0 °F 83% 29.80 in 10.0 mi South 11.5 mph 18.4 mph N/A   Unknown
10:55 PM 64.4 °F 59.0 °F 83% 29.80 in 10.0 mi SSE 13.8 mph 17.3 mph N/A   Unknown
11:15 PM 64.4 °F 59.0 °F 83% 29.78 in 10.0 mi SSE 10.4 mph - N/A   Unknown
11:35 PM 64.4 °F 59.0 °F 83% 29.79 in 10.0 mi SSE 12.7 mph 18.4 mph N/A   Unknown
11:55 PM 64.4 °F 59.0 °F 83% 29.79 in 10.0 mi SSE 9.2 mph - N/A   Unknown